Date_Time,Julian_Date,Latitude,Longitude,Instrument_Depth,U,V,Speed,Direction
(yyyy-mm-dd hh:mn:ss UTC),(JD),(+ deg. North),(+ deg. East),(m),(cm/s),(cm/s),(cm/s),(deg True)
1988-08-04 15:30:00 UTC,2447378.145833,27.8833,-91.9950,0100,-0.60,-0.70,0.9220,220.6013
1988-08-04 16:00:00 UTC,2447378.166667,27.8833,-91.9950,0100,0.00,0.00,0.0000,0.0000
1988-08-04 16:30:00 UTC,2447378.187500,27.8833,-91.9950,0100,0.00,0.00,0.0000,0.0000
1988-08-04 17:00:00 UTC,2447378.208333,27.8833,-91.9950,0100,-0.30,-0.38,0.4841,218.2902
1988-08-04 17:30:00 UTC,2447378.229167,27.8833,-91.9950,0100,1.93,1.63,2.5262,49.8169
1988-08-04 18:00:00 UTC,2447378.250000,27.8833,-91.9950,0100,0.50,0.38,0.6280,52.7652
1988-08-04 18:30:00 UTC,2447378.270833,27.8833,-91.9950,0100,1.05,0.65,1.2349,58.2405
1988-08-04 19:00:00 UTC,2447378.291667,27.8833,-91.9950,0100,2.07,2.40,3.1694,40.7778
1988-08-04 19:30:00 UTC,2447378.312500,27.8833,-91.9950,0100,3.05,2.30,3.8200,52.9801
1988-08-04 20:00:00 UTC,2447378.333333,27.8833,-91.9950,0100,3.90,3.30,5.1088,49.7636
1988-08-04 20:30:00 UTC,2447378.354167,27.8833,-91.9950,0100,3.48,2.80,4.4666,51.1799
1988-08-04 21:00:00 UTC,2447378.375000,27.8833,-91.9950,0100,3.68,2.55,4.4772,55.2806
1988-08-04 21:30:00 UTC,2447378.395833,27.8833,-91.9950,0100,2.63,1.77,3.1701,56.0593
1988-08-04 22:00:00 UTC,2447378.416667,27.8833,-91.9950,0100,2.10,1.40,2.5239,56.3099
1988-08-04 22:30:00 UTC,2447378.437500,27.8833,-91.9950,0100,1.10,0.90,1.4213,50.7106
1988-08-04 23:00:00 UTC,2447378.458333,27.8833,-91.9950,0100,2.30,1.10,2.5495,64.4400
1988-08-04 23:30:00 UTC,2447378.479167,27.8833,-91.9950,0100,2.30,1.10,2.5495,64.4400
1988-08-05 00:00:00 UTC,2447378.500000,27.8833,-91.9950,0100,2.30,0.90,2.4698,68.6294
1988-08-05 00:30:00 UTC,2447378.520833,27.8833,-91.9950,0100,2.50,0.25,2.5125,84.2894
1988-08-05 01:00:00 UTC,2447378.541667,27.8833,-91.9950,0100,3.80,-0.20,3.8053,93.0128
1988-08-05 01:30:00 UTC,2447378.562500,27.8833,-91.9950,0100,3.13,0.55,3.1780,80.0338
1988-08-05 02:00:00 UTC,2447378.583333,27.8833,-91.9950,0100,2.40,0.88,2.5562,69.8637
1988-08-05 02:30:00 UTC,2447378.604167,27.8833,-91.9950,0100,2.40,0.80,2.5298,71.5650
1988-08-05 03:00:00 UTC,2447378.625000,27.8833,-91.9950,0100,3.65,0.98,3.7793,74.9709
1988-08-05 03:30:00 UTC,2447378.645833,27.8833,-91.9950,0100,4.28,1.13,4.4267,75.2103
1988-08-05 04:00:00 UTC,2447378.666667,27.8833,-91.9950,0100,3.75,0.90,3.8565,76.5043
1988-08-05 04:30:00 UTC,2447378.687500,27.8833,-91.9950,0100,4.98,1.23,5.1296,76.1263
1988-08-05 05:00:00 UTC,2447378.708333,27.8833,-91.9950,0100,5.53,1.58,5.7513,74.0546
1988-08-05 05:30:00 UTC,2447378.729167,27.8833,-91.9950,0100,7.05,0.73,7.0877,84.0883
1988-08-05 06:00:00 UTC,2447378.750000,27.8833,-91.9950,0100,7.05,-0.10,7.0507,90.8126
1988-08-05 06:30:00 UTC,2447378.770833,27.8833,-91.9950,0100,5.75,-0.55,5.7762,95.4638
1988-08-05 07:00:00 UTC,2447378.791667,27.8833,-91.9950,0100,5.10,-0.30,5.1088,93.3665
1988-08-05 07:30:00 UTC,2447378.812500,27.8833,-91.9950,0100,5.10,0.10,5.1010,88.8767
1988-08-05 08:00:00 UTC,2447378.833333,27.8833,-91.9950,0100,5.10,0.40,5.1157,85.5154
1988-08-05 08:30:00 UTC,2447378.854167,27.8833,-91.9950,0100,3.75,0.80,3.8344,77.9574
1988-08-05 09:00:00 UTC,2447378.875000,27.8833,-91.9950,0100,3.75,0.80,3.8344,77.9574
1988-08-05 09:30:00 UTC,2447378.895833,27.8833,-91.9950,0100,2.40,0.90,2.5632,69.4439
1988-08-05 10:00:00 UTC,2447378.916667,27.8833,-91.9950,0100,4.45,0.55,4.4839,82.9542
1988-08-05 10:30:00 UTC,2447378.937500,27.8833,-91.9950,0100,3.13,0.50,3.1697,80.9240
1988-08-05 11:00:00 UTC,2447378.958333,27.8833,-91.9950,0100,2.50,0.40,2.5318,80.9097
1988-08-05 11:30:00 UTC,2447378.979167,27.8833,-91.9950,0100,0.00,0.00,0.0000,0.0000
1988-08-05 12:00:00 UTC,2447379.000000,27.8833,-91.9950,0100,0.00,0.00,0.0000,0.0000
1988-08-05 12:30:00 UTC,2447379.020833,27.8833,-91.9950,0100,0.00,0.00,0.0000,0.0000
1988-08-05 13:00:00 UTC,2447379.041667,27.8833,-91.9950,0100,0.58,0.28,0.6440,64.2307
1988-08-05 13:30:00 UTC,2447379.062500,27.8833,-91.9950,0100,0.00,0.00,0.0000,0.0000
1988-08-05 14:00:00 UTC,2447379.083333,27.8833,-91.9950,0100,0.00,0.00,0.0000,0.0000
1988-08-05 14:30:00 UTC,2447379.104167,27.8833,-91.9950,0100,0.00,0.00,0.0000,0.0000
1988-08-05 15:00:00 UTC,2447379.125000,27.8833,-91.9950,0100,0.00,0.00,0.0000,0.0000
1988-08-05 15:30:00 UTC,2447379.145833,27.8833,-91.9950,0100,0.00,0.00,0.0000,0.0000
1988-08-05 16:00:00 UTC,2447379.166667,27.8833,-91.9950,0100,0.00,0.00,0.0000,0.0000
1988-08-05 16:30:00 UTC,2447379.187500,27.8833,-91.9950,0100,0.55,0.30,0.6265,61.3895
1988-08-05 17:00:00 UTC,2447379.208333,27.8833,-91.9950,0100,0.00,0.00,0.0000,0.0000
1988-08-05 17:30:00 UTC,2447379.229167,27.8833,-91.9950,0100,0.00,0.00,0.0000,0.0000
1988-08-05 18:00:00 UTC,2447379.250000,27.8833,-91.9950,0100,0.00,0.00,0.0000,0.0000
1988-08-05 18:30:00 UTC,2447379.270833,27.8833,-91.9950,0100,0.63,0.10,0.6379,80.9807
1988-08-05 19:00:00 UTC,2447379.291667,27.8833,-91.9950,0100,0.00,0.00,0.0000,0.0000
1988-08-05 19:30:00 UTC,2447379.312500,27.8833,-91.9950,0100,1.20,0.40,1.2649,71.5650
1988-08-05 20:00:00 UTC,2447379.333333,27.8833,-91.9950,0100,1.20,0.38,1.2587,72.4287
1988-08-05 20:30:00 UTC,2447379.354167,27.8833,-91.9950,0100,0.00,0.00,0.0000,0.0000
1988-08-05 21:00:00 UTC,2447379.375000,27.8833,-91.9950,0100,0.00,0.00,0.0000,0.0000
1988-08-05 21:30:00 UTC,2447379.395833,27.8833,-91.9950,0100,0.55,0.30,0.6265,61.3895
1988-08-05 22:00:00 UTC,2447379.416667,27.8833,-91.9950,0100,0.53,0.33,0.6243,58.0919
1988-08-05 22:30:00 UTC,2447379.437500,27.8833,-91.9950,0100,0.00,0.00,0.0000,0.0000
1988-08-05 23:00:00 UTC,2447379.458333,27.8833,-91.9950,0100,0.00,0.00,0.0000,0.0000
1988-08-05 23:30:00 UTC,2447379.479167,27.8833,-91.9950,0100,0.00,0.00,0.0000,0.0000
1988-08-06 00:00:00 UTC,2447379.500000,27.8833,-91.9950,0100,0.45,0.43,0.6224,46.3020
1988-08-06 00:30:00 UTC,2447379.520833,27.8833,-91.9950,0100,0.33,0.55,0.6414,30.9638
1988-08-06 01:00:00 UTC,2447379.541667,27.8833,-91.9950,0100,2.00,1.50,2.5000,53.1301
1988-08-06 01:30:00 UTC,2447379.562500,27.8833,-91.9950,0100,0.55,0.33,0.6414,59.0362
1988-08-06 02:00:00 UTC,2447379.583333,27.8833,-91.9950,0100,0.53,0.33,0.6243,58.0919
1988-08-06 02:30:00 UTC,2447379.604167,27.8833,-91.9950,0100,1.28,1.43,1.9192,41.8319
1988-08-06 03:00:00 UTC,2447379.625000,27.8833,-91.9950,0100,2.00,1.55,2.5303,52.2243
1988-08-06 03:30:00 UTC,2447379.645833,27.8833,-91.9950,0100,1.03,0.73,1.2625,54.6734
1988-08-06 04:00:00 UTC,2447379.666667,27.8833,-91.9950,0100,0.58,0.28,0.6440,64.2307
1988-08-06 04:30:00 UTC,2447379.687500,27.8833,-91.9950,0100,0.63,0.10,0.6379,80.9807
1988-08-06 05:00:00 UTC,2447379.708333,27.8833,-91.9950,0100,2.50,0.30,2.5179,83.1572
1988-08-06 05:30:00 UTC,2447379.729167,27.8833,-91.9950,0100,2.50,-0.03,2.5002,90.6875
1988-08-06 06:00:00 UTC,2447379.750000,27.8833,-91.9950,0100,2.50,-0.10,2.5020,92.2906
1988-08-06 06:30:00 UTC,2447379.770833,27.8833,-91.9950,0100,1.15,0.48,1.2462,67.3448
1988-08-06 07:00:00 UTC,2447379.791667,27.8833,-91.9950,0100,0.63,0.13,0.6433,78.3407
1988-08-06 07:30:00 UTC,2447379.812500,27.8833,-91.9950,0100,0.63,-0.03,0.6307,92.7263
1988-08-06 08:00:00 UTC,2447379.833333,27.8833,-91.9950,0100,0.63,-0.05,0.6320,94.5378
1988-08-06 08:30:00 UTC,2447379.854167,27.8833,-91.9950,0100,2.50,-0.30,2.5179,96.8428
1988-08-06 09:00:00 UTC,2447379.875000,27.8833,-91.9950,0100,2.50,-0.20,2.5080,94.5739
1988-08-06 09:30:00 UTC,2447379.895833,27.8833,-91.9950,0100,1.88,-0.30,1.9038,99.0665
1988-08-06 10:00:00 UTC,2447379.916667,27.8833,-91.9950,0100,1.88,-0.30,1.9038,99.0665
1988-08-06 10:30:00 UTC,2447379.937500,27.8833,-91.9950,0100,2.50,-0.50,2.5495,101.3099
1988-08-06 11:00:00 UTC,2447379.958333,27.8833,-91.9950,0100,2.50,-0.60,2.5710,103.4957
1988-08-06 11:30:00 UTC,2447379.979167,27.8833,-91.9950,0100,1.88,-0.15,1.8860,94.5618
1988-08-06 12:00:00 UTC,2447380.000000,27.8833,-91.9950,0100,0.00,0.00,0.0000,0.0000
1988-08-06 12:30:00 UTC,2447380.020833,27.8833,-91.9950,0100,0.00,0.00,0.0000,0.0000
1988-08-06 13:00:00 UTC,2447380.041667,27.8833,-91.9950,0100,0.00,0.00,0.0000,0.0000
1988-08-06 13:30:00 UTC,2447380.062500,27.8833,-91.9950,0100,0.63,0.03,0.6307,87.2737
1988-08-06 14:00:00 UTC,2447380.083333,27.8833,-91.9950,0100,0.63,0.08,0.6351,82.7631
1988-08-06 14:30:00 UTC,2447380.104167,27.8833,-91.9950,0100,1.25,0.25,1.2748,78.6901
1988-08-06 15:00:00 UTC,2447380.125000,27.8833,-91.9950,0100,1.25,0.05,1.2510,87.7094
1988-08-06 15:30:00 UTC,2447380.145833,27.8833,-91.9950,0100,1.25,0.10,1.2540,85.4261
1988-08-06 16:00:00 UTC,2447380.166667,27.8833,-91.9950,0100,2.50,0.40,2.5318,80.9097
1988-08-06 16:30:00 UTC,2447380.187500,27.8833,-91.9950,0100,1.88,0.20,1.8906,83.9275
1988-08-06 17:00:00 UTC,2447380.208333,27.8833,-91.9950,0100,2.40,0.60,2.4739,75.9638
1988-08-06 17:30:00 UTC,2447380.229167,27.8833,-91.9950,0100,4.45,0.18,4.4536,87.6837
1988-08-06 18:00:00 UTC,2447380.250000,27.8833,-91.9950,0100,3.15,-0.10,3.1516,91.8183
1988-08-06 18:30:00 UTC,2447380.270833,27.8833,-91.9950,0100,2.50,0.08,2.5013,88.1672
1988-08-06 19:00:00 UTC,2447380.291667,27.8833,-91.9950,0100,2.50,-0.10,2.5020,92.2906
1988-08-06 19:30:00 UTC,2447380.312500,27.8833,-91.9950,0100,2.50,-0.20,2.5080,94.5739
1988-08-06 20:00:00 UTC,2447380.333333,27.8833,-91.9950,0100,2.50,-0.40,2.5318,99.0903
1988-08-06 20:30:00 UTC,2447380.354167,27.8833,-91.9950,0100,2.50,-0.20,2.5080,94.5739
1988-08-06 21:00:00 UTC,2447380.375000,27.8833,-91.9950,0100,1.88,-0.07,1.8813,92.1324
1988-08-06 21:30:00 UTC,2447380.395833,27.8833,-91.9950,0100,2.50,0.20,2.5080,85.4261
1988-08-06 22:00:00 UTC,2447380.416667,27.8833,-91.9950,0100,1.25,0.08,1.2526,86.3381
1988-08-06 22:30:00 UTC,2447380.437500,27.8833,-91.9950,0100,2.30,1.00,2.5080,66.5014
1988-08-06 23:00:00 UTC,2447380.458333,27.8833,-91.9950,0100,2.38,2.13,3.1939,48.1728
1988-08-06 23:30:00 UTC,2447380.479167,27.8833,-91.9950,0100,3.40,1.70,3.8013,63.4349
1988-08-07 00:00:00 UTC,2447380.500000,27.8833,-91.9950,0100,4.28,2.83,5.1310,56.5267
1988-08-07 00:30:00 UTC,2447380.520833,27.8833,-91.9950,0100,4.10,3.00,5.0804,53.8068
1988-08-07 01:00:00 UTC,2447380.541667,27.8833,-91.9950,0100,0.48,0.40,0.6248,50.1944
1988-08-07 01:30:00 UTC,2447380.562500,27.8833,-91.9950,0100,1.20,1.43,1.8668,40.0021
1988-08-07 02:00:00 UTC,2447380.583333,27.8833,-91.9950,0100,0.85,0.90,1.2379,43.3634
1988-08-07 02:30:00 UTC,2447380.604167,27.8833,-91.9950,0100,0.53,0.35,0.6351,56.5601
1988-08-07 03:00:00 UTC,2447380.625000,27.8833,-91.9950,0100,1.00,0.75,1.2500,53.1301
1988-08-07 03:30:00 UTC,2447380.645833,27.8833,-91.9950,0100,2.10,1.30,2.4698,58.2405
1988-08-07 04:00:00 UTC,2447380.666667,27.8833,-91.9950,0100,3.03,0.80,3.1338,75.2099
1988-08-07 04:30:00 UTC,2447380.687500,27.8833,-91.9950,0100,6.35,0.95,6.4207,81.4913
1988-08-07 05:00:00 UTC,2447380.708333,27.8833,-91.9950,0100,4.45,0.33,4.4622,85.7589
1988-08-07 05:30:00 UTC,2447380.729167,27.8833,-91.9950,0100,5.75,0.10,5.7509,89.0036
1988-08-07 06:00:00 UTC,2447380.750000,27.8833,-91.9950,0100,5.75,-0.10,5.7509,90.9963
1988-08-07 06:30:00 UTC,2447380.770833,27.8833,-91.9950,0100,4.45,-0.58,4.4876,97.4259
1988-08-07 07:00:00 UTC,2447380.791667,27.8833,-91.9950,0100,5.73,-0.75,5.7789,97.4570
1988-08-07 07:30:00 UTC,2447380.812500,27.8833,-91.9950,0100,5.75,-0.55,5.7762,95.4638
1988-08-07 08:00:00 UTC,2447380.833333,27.8833,-91.9950,0100,5.75,-0.58,5.7792,95.7599
1988-08-07 08:30:00 UTC,2447380.854167,27.8833,-91.9950,0100,5.10,-0.40,5.1157,94.4846
1988-08-07 09:00:00 UTC,2447380.875000,27.8833,-91.9950,0100,5.10,-0.40,5.1157,94.4846
1988-08-07 09:30:00 UTC,2447380.895833,27.8833,-91.9950,0100,4.45,-0.45,4.4727,95.7743
1988-08-07 10:00:00 UTC,2447380.916667,27.8833,-91.9950,0100,5.10,-0.53,5.1275,95.9330
1988-08-07 10:30:00 UTC,2447380.937500,27.8833,-91.9950,0100,4.45,-0.45,4.4727,95.7743
1988-08-07 11:00:00 UTC,2447380.958333,27.8833,-91.9950,0100,5.10,-0.20,5.1039,92.2457
1988-08-07 11:30:00 UTC,2447380.979167,27.8833,-91.9950,0100,4.45,0.53,4.4815,83.2080
1988-08-07 12:00:00 UTC,2447381.000000,27.8833,-91.9950,0100,3.08,0.75,3.1700,76.3145
1988-08-07 12:30:00 UTC,2447381.020833,27.8833,-91.9950,0100,2.43,0.83,2.5678,71.1417
1988-08-07 13:00:00 UTC,2447381.041667,27.8833,-91.9950,0100,2.50,0.30,2.5179,83.1572
1988-08-07 13:30:00 UTC,2447381.062500,27.8833,-91.9950,0100,2.53,0.33,2.5514,82.5686
1988-08-07 14:00:00 UTC,2447381.083333,27.8833,-91.9950,0100,2.50,0.20,2.5080,85.4261
1988-08-07 14:30:00 UTC,2447381.104167,27.8833,-91.9950,0100,3.15,-0.10,3.1516,91.8183
1988-08-07 15:00:00 UTC,2447381.125000,27.8833,-91.9950,0100,4.45,-0.45,4.4727,95.7743
1988-08-07 15:30:00 UTC,2447381.145833,27.8833,-91.9950,0100,5.00,-1.18,5.1374,103.2788
1988-08-07 16:00:00 UTC,2447381.166667,27.8833,-91.9950,0100,5.10,-0.53,5.1275,95.9330
1988-08-07 16:30:00 UTC,2447381.187500,27.8833,-91.9950,0100,2.50,-0.60,2.5710,103.4957
1988-08-07 17:00:00 UTC,2447381.208333,27.8833,-91.9950,0100,3.15,0.15,3.1536,87.2737
1988-08-07 17:30:00 UTC,2447381.229167,27.8833,-91.9950,0100,3.80,-0.48,3.8302,97.1992
1988-08-07 18:00:00 UTC,2447381.250000,27.8833,-91.9950,0100,3.80,-0.45,3.8266,96.7536
1988-08-07 18:30:00 UTC,2447381.270833,27.8833,-91.9950,0100,4.85,-1.68,5.1327,109.1057
1988-08-07 19:00:00 UTC,2447381.291667,27.8833,-91.9950,0100,3.65,-1.25,3.8581,108.9046
1988-08-07 19:30:00 UTC,2447381.312500,27.8833,-91.9950,0100,4.48,-0.05,4.4803,90.6394
1988-08-07 20:00:00 UTC,2447381.333333,27.8833,-91.9950,0100,5.03,0.93,5.1153,79.5248
1988-08-07 20:30:00 UTC,2447381.354167,27.8833,-91.9950,0100,4.40,0.73,4.4601,80.5799
1988-08-07 21:00:00 UTC,2447381.375000,27.8833,-91.9950,0100,3.15,0.33,3.1672,84.0194
1988-08-07 21:30:00 UTC,2447381.395833,27.8833,-91.9950,0100,3.18,0.03,3.1801,89.4595
1988-08-07 22:00:00 UTC,2447381.416667,27.8833,-91.9950,0100,4.40,0.73,4.4601,80.5799
1988-08-07 22:30:00 UTC,2447381.437500,27.8833,-91.9950,0100,3.13,0.63,3.1928,78.6197
1988-08-07 23:00:00 UTC,2447381.458333,27.8833,-91.9950,0100,1.88,-0.07,1.8813,92.1324
1988-08-07 23:30:00 UTC,2447381.479167,27.8833,-91.9950,0100,1.23,0.30,1.2661,76.2930
1988-08-08 00:00:00 UTC,2447381.500000,27.8833,-91.9950,0100,1.15,0.53,1.2663,65.2565
1988-08-08 00:30:00 UTC,2447381.520833,27.8833,-91.9950,0100,1.70,1.80,2.4759,43.3634
1988-08-08 01:00:00 UTC,2447381.541667,27.8833,-91.9950,0100,1.70,1.88,2.5346,42.1216
1988-08-08 01:30:00 UTC,2447381.562500,27.8833,-91.9950,0100,1.82,2.58,3.1573,35.2001
1988-08-08 02:00:00 UTC,2447381.583333,27.8833,-91.9950,0100,2.98,3.33,4.4687,41.8252
1988-08-08 02:30:00 UTC,2447381.604167,27.8833,-91.9950,0100,2.53,1.90,3.1640,53.0939
1988-08-08 03:00:00 UTC,2447381.625000,27.8833,-91.9950,0100,4.10,3.00,5.0804,53.8068
1988-08-08 03:30:00 UTC,2447381.645833,27.8833,-91.9950,0100,5.40,4.50,7.0292,50.1944
1988-08-08 04:00:00 UTC,2447381.666667,27.8833,-91.9950,0100,4.40,2.60,5.1108,59.4208
1988-08-08 04:30:00 UTC,2447381.687500,27.8833,-91.9950,0100,4.40,2.60,5.1108,59.4208
1988-08-08 05:00:00 UTC,2447381.708333,27.8833,-91.9950,0100,5.65,2.95,6.3738,62.4299
1988-08-08 05:30:00 UTC,2447381.729167,27.8833,-91.9950,0100,6.53,2.55,7.0102,68.6691
1988-08-08 06:00:00 UTC,2447381.750000,27.8833,-91.9950,0100,3.98,2.05,4.4769,62.7481
1988-08-08 06:30:00 UTC,2447381.770833,27.8833,-91.9950,0100,4.70,2.00,5.1078,66.9487
1988-08-08 07:00:00 UTC,2447381.791667,27.8833,-91.9950,0100,5.30,2.27,5.7657,66.8145
1988-08-08 07:30:00 UTC,2447381.812500,27.8833,-91.9950,0100,4.83,1.68,5.1138,70.8210
1988-08-08 08:00:00 UTC,2447381.833333,27.8833,-91.9950,0100,4.28,1.15,4.4318,74.9603
1988-08-08 08:30:00 UTC,2447381.854167,27.8833,-91.9950,0100,3.75,0.93,3.8636,76.0716
1988-08-08 09:00:00 UTC,2447381.875000,27.8833,-91.9950,0100,4.38,0.90,4.4715,78.3885
1988-08-08 09:30:00 UTC,2447381.895833,27.8833,-91.9950,0100,5.73,0.70,5.7726,83.0350
1988-08-08 10:00:00 UTC,2447381.916667,27.8833,-91.9950,0100,7.05,0.08,7.0505,89.3499
1988-08-08 10:30:00 UTC,2447381.937500,27.8833,-91.9950,0100,7.70,0.10,7.7006,89.2559
1988-08-08 11:00:00 UTC,2447381.958333,27.8833,-91.9950,0100,12.18,-0.73,12.2019,93.4299
1988-08-08 11:30:00 UTC,2447381.979167,27.8833,-91.9950,0100,8.35,-0.03,8.3501,90.2058
1988-08-08 12:00:00 UTC,2447382.000000,27.8833,-91.9950,0100,7.05,0.03,7.0501,89.7562
1988-08-08 12:30:00 UTC,2447382.020833,27.8833,-91.9950,0100,5.75,-0.30,5.7578,92.9866
1988-08-08 13:00:00 UTC,2447382.041667,27.8833,-91.9950,0100,9.48,-1.58,9.6108,99.4623
1988-08-08 13:30:00 UTC,2447382.062500,27.8833,-91.9950,0100,8.28,-1.28,8.3784,98.7878
1988-08-08 14:00:00 UTC,2447382.083333,27.8833,-91.9950,0100,6.95,-1.30,7.0705,100.5948
1988-08-08 14:30:00 UTC,2447382.104167,27.8833,-91.9950,0100,5.63,-1.25,5.7671,102.5180
1988-08-08 15:00:00 UTC,2447382.125000,27.8833,-91.9950,0100,5.28,-0.90,5.3562,99.6733
1988-08-08 15:30:00 UTC,2447382.145833,27.8833,-91.9950,0100,2.68,-0.70,2.7699,104.6383
1988-08-08 16:00:00 UTC,2447382.166667,27.8833,-91.9950,0100,2.05,-0.45,2.0988,102.3808
1988-08-08 16:30:00 UTC,2447382.187500,27.8833,-91.9950,0100,2.63,-0.75,2.7348,105.9166
1988-08-08 17:00:00 UTC,2447382.208333,27.8833,-91.9950,0100,5.85,1.10,5.9525,79.3508
1988-08-08 17:30:00 UTC,2447382.229167,27.8833,-91.9950,0100,3.83,0.10,3.8313,88.5044
1988-08-08 18:00:00 UTC,2447382.250000,27.8833,-91.9950,0100,4.28,1.30,4.4731,73.1044
1988-08-08 18:30:00 UTC,2447382.270833,27.8833,-91.9950,0100,3.15,0.30,3.1643,84.5597
1988-08-08 19:00:00 UTC,2447382.291667,27.8833,-91.9950,0100,4.90,1.40,5.0961,74.0546
1988-08-08 19:30:00 UTC,2447382.312500,27.8833,-91.9950,0100,3.15,0.20,3.1563,86.3671
1988-08-08 20:00:00 UTC,2447382.333333,27.8833,-91.9950,0100,3.20,0.95,3.3380,73.4652
1988-08-08 20:30:00 UTC,2447382.354167,27.8833,-91.9950,0100,4.08,1.82,4.4675,65.9594
1988-08-08 21:00:00 UTC,2447382.375000,27.8833,-91.9950,0100,4.38,0.88,4.4675,78.6398
1988-08-08 21:30:00 UTC,2447382.395833,27.8833,-91.9950,0100,3.53,1.48,3.8277,67.2535
1988-08-08 22:00:00 UTC,2447382.416667,27.8833,-91.9950,0100,5.68,0.93,5.7556,80.7013
1988-08-08 22:30:00 UTC,2447382.437500,27.8833,-91.9950,0100,4.93,1.30,5.0985,75.2278
1988-08-08 23:00:00 UTC,2447382.458333,27.8833,-91.9950,0100,8.55,2.73,8.9753,72.2918
1988-08-08 23:30:00 UTC,2447382.479167,27.8833,-91.9950,0100,6.15,1.77,6.3996,73.9439
1988-08-09 00:00:00 UTC,2447382.500000,27.8833,-91.9950,0100,6.25,1.48,6.4228,76.6777
1988-08-09 00:30:00 UTC,2447382.520833,27.8833,-91.9950,0100,4.20,1.50,4.4598,70.3462
1988-08-09 01:00:00 UTC,2447382.541667,27.8833,-91.9950,0100,4.25,1.38,4.4684,72.0111
1988-08-09 01:30:00 UTC,2447382.562500,27.8833,-91.9950,0100,4.28,1.30,4.4731,73.1044
1988-08-09 02:00:00 UTC,2447382.583333,27.8833,-91.9950,0100,3.83,2.27,4.4522,59.3452
1988-08-09 02:30:00 UTC,2447382.604167,27.8833,-91.9950,0100,2.98,3.30,4.4464,42.0830
1988-08-09 03:00:00 UTC,2447382.625000,27.8833,-91.9950,0100,1.70,1.85,2.5125,42.5805
1988-08-09 03:30:00 UTC,2447382.645833,27.8833,-91.9950,0100,1.73,0.83,1.9188,64.3698
1988-08-09 04:00:00 UTC,2447382.666667,27.8833,-91.9950,0100,1.48,1.20,1.9054,50.9645
1988-08-09 04:30:00 UTC,2447382.687500,27.8833,-91.9950,0100,2.50,1.93,3.1583,52.3319
1988-08-09 05:00:00 UTC,2447382.708333,27.8833,-91.9950,0100,1.73,1.82,2.5110,43.5477
1988-08-09 05:30:00 UTC,2447382.729167,27.8833,-91.9950,0100,0.35,0.53,0.6351,33.4399
1988-08-09 06:00:00 UTC,2447382.750000,27.8833,-91.9950,0100,0.73,1.03,1.2625,35.3266
1988-08-09 06:30:00 UTC,2447382.770833,27.8833,-91.9950,0100,0.38,0.50,0.6280,37.2348
1988-08-09 07:00:00 UTC,2447382.791667,27.8833,-91.9950,0100,1.13,1.50,1.8780,36.9919
1988-08-09 07:30:00 UTC,2447382.812500,27.8833,-91.9950,0100,2.38,2.10,3.1740,48.5763
1988-08-09 08:00:00 UTC,2447382.833333,27.8833,-91.9950,0100,1.80,1.77,2.5245,45.4815
1988-08-09 08:30:00 UTC,2447382.854167,27.8833,-91.9950,0100,1.75,2.07,2.7106,40.2115
1988-08-09 09:00:00 UTC,2447382.875000,27.8833,-91.9950,0100,1.90,1.65,2.5164,49.0283
1988-08-09 09:30:00 UTC,2447382.895833,27.8833,-91.9950,0100,2.25,2.25,3.1820,45.0000
1988-08-09 10:00:00 UTC,2447382.916667,27.8833,-91.9950,0100,2.35,2.13,3.1717,47.8114
1988-08-09 10:30:00 UTC,2447382.937500,27.8833,-91.9950,0100,2.48,2.00,3.1860,51.1155
1988-08-09 11:00:00 UTC,2447382.958333,27.8833,-91.9950,0100,2.95,2.40,3.8030,50.8696
1988-08-09 11:30:00 UTC,2447382.979167,27.8833,-91.9950,0100,2.38,2.05,3.1412,49.2602
1988-08-09 12:00:00 UTC,2447383.000000,27.8833,-91.9950,0100,2.53,1.93,3.1821,52.6619
1988-08-09 12:30:00 UTC,2447383.020833,27.8833,-91.9950,0100,3.15,2.20,3.8422,55.0691
1988-08-09 13:00:00 UTC,2447383.041667,27.8833,-91.9950,0100,4.40,2.60,5.1108,59.4208
1988-08-09 13:30:00 UTC,2447383.062500,27.8833,-91.9950,0100,2.75,1.55,3.1567,60.5928
1988-08-09 14:00:00 UTC,2447383.083333,27.8833,-91.9950,0100,2.35,1.00,2.5539,66.9487
1988-08-09 14:30:00 UTC,2447383.104167,27.8833,-91.9950,0100,1.70,0.85,1.9007,63.4349
1988-08-09 15:00:00 UTC,2447383.125000,27.8833,-91.9950,0100,1.75,0.75,1.9039,66.8014
1988-08-09 15:30:00 UTC,2447383.145833,27.8833,-91.9950,0100,3.55,1.38,3.8088,68.7573
1988-08-09 16:00:00 UTC,2447383.166667,27.8833,-91.9950,0100,0.50,0.20,0.5385,68.1986
1988-08-09 16:30:00 UTC,2447383.187500,27.8833,-91.9950,0100,1.20,0.40,1.2649,71.5650
1988-08-09 17:00:00 UTC,2447383.208333,27.8833,-91.9950,0100,0.05,0.05,0.0707,45.0000
1988-08-09 17:30:00 UTC,2447383.229167,27.8833,-91.9950,0100,0.53,0.35,0.6351,56.5601
1988-08-09 18:00:00 UTC,2447383.250000,27.8833,-91.9950,0100,1.33,2.90,3.1904,24.6372
1988-08-09 18:30:00 UTC,2447383.270833,27.8833,-91.9950,0100,2.30,2.20,3.1828,46.2730
1988-08-09 19:00:00 UTC,2447383.291667,27.8833,-91.9950,0100,2.98,2.40,3.8263,51.1531
1988-08-09 19:30:00 UTC,2447383.312500,27.8833,-91.9950,0100,2.25,2.18,3.1329,45.9053
1988-08-09 20:00:00 UTC,2447383.333333,27.8833,-91.9950,0100,3.03,3.25,4.4434,42.9936
1988-08-09 20:30:00 UTC,2447383.354167,27.8833,-91.9950,0100,3.45,2.83,4.4622,50.6383
1988-08-09 21:00:00 UTC,2447383.375000,27.8833,-91.9950,0100,5.23,2.38,5.7461,65.5313
1988-08-09 21:30:00 UTC,2447383.395833,27.8833,-91.9950,0100,4.65,2.13,5.1146,65.3892
1988-08-09 22:00:00 UTC,2447383.416667,27.8833,-91.9950,0100,5.30,2.30,5.7775,66.5410
1988-08-09 22:30:00 UTC,2447383.437500,27.8833,-91.9950,0100,7.08,3.00,7.6894,67.0362
1988-08-09 23:00:00 UTC,2447383.458333,27.8833,-91.9950,0100,4.68,2.02,5.0973,66.6538
1988-08-09 23:30:00 UTC,2447383.479167,27.8833,-91.9950,0100,4.28,1.20,4.4450,74.3379
1988-08-10 00:00:00 UTC,2447383.500000,27.8833,-91.9950,0100,4.30,1.18,4.4590,74.6547
1988-08-10 00:30:00 UTC,2447383.520833,27.8833,-91.9950,0100,4.28,1.20,4.4450,74.3379
1988-08-10 01:00:00 UTC,2447383.541667,27.8833,-91.9950,0100,4.10,1.73,4.4500,67.1226
1988-08-10 01:30:00 UTC,2447383.562500,27.8833,-91.9950,0100,2.30,1.10,2.5495,64.4400
1988-08-10 02:00:00 UTC,2447383.583333,27.8833,-91.9950,0100,2.00,1.50,2.5000,53.1301
1988-08-10 02:30:00 UTC,2447383.604167,27.8833,-91.9950,0100,2.98,2.38,3.8138,51.3871
1988-08-10 03:00:00 UTC,2447383.625000,27.8833,-91.9950,0100,2.38,2.05,3.1412,49.2602
1988-08-10 03:30:00 UTC,2447383.645833,27.8833,-91.9950,0100,1.70,1.80,2.4759,43.3634
1988-08-10 04:00:00 UTC,2447383.666667,27.8833,-91.9950,0100,1.43,1.20,1.8668,49.9979
1988-08-10 04:30:00 UTC,2447383.687500,27.8833,-91.9950,0100,1.05,0.65,1.2349,58.2405
1988-08-10 05:00:00 UTC,2447383.708333,27.8833,-91.9950,0100,2.30,1.10,2.5495,64.4400
1988-08-10 05:30:00 UTC,2447383.729167,27.8833,-91.9950,0100,1.73,0.73,1.8777,67.1219
1988-08-10 06:00:00 UTC,2447383.750000,27.8833,-91.9950,0100,1.73,0.70,1.8663,67.9706
1988-08-10 06:30:00 UTC,2447383.770833,27.8833,-91.9950,0100,1.15,0.53,1.2663,65.2565
1988-08-10 07:00:00 UTC,2447383.791667,27.8833,-91.9950,0100,1.73,0.83,1.9188,64.3698
1988-08-10 07:30:00 UTC,2447383.812500,27.8833,-91.9950,0100,1.15,0.55,1.2748,64.4400
1988-08-10 08:00:00 UTC,2447383.833333,27.8833,-91.9950,0100,1.65,0.90,1.8795,61.3895
1988-08-10 08:30:00 UTC,2447383.854167,27.8833,-91.9950,0100,1.10,0.60,1.2530,61.3895
1988-08-10 09:00:00 UTC,2447383.875000,27.8833,-91.9950,0100,2.30,1.00,2.5080,66.5014